Location: ???????
(55.8860°N, 38.0932°E)
Time: 13:18:07
(UTC+00:00)

ATLAS 5 CENTAUR R/B - Visible Passes

Search period start: 12 July 2024 00:00
Search period end: 22 July 2024 00:00
Orbit: 417 x 1167 km, 63.3° (Epoch: 11 July)

Date Brightness Start Highest point End Pass type
(mag) Time Alt. Az. Time Alt. Az. Time Alt. Az.
12 Jul 1.0 19:34:25 10° SW 19:37:49 88° SSE 19:41:49 10° NE visible
12 Jul 3.2 21:18:39 10° W 21:22:01 33° NNW 21:25:59 10° NE visible
12 Jul 3.6 23:02:59 10° NW 23:06:41 33° NNE 23:11:06 10° ENE visible
13 Jul 1.0 19:03:56 10° SW 19:07:18 70° SE 19:11:13 10° NE visible
13 Jul 3.0 20:47:58 10° W 20:51:21 35° NNW 20:55:19 10° NE visible
13 Jul 3.6 22:32:24 10° NW 22:36:00 31° N 22:40:18 10° ENE visible
14 Jul 2.8 20:17:17 10° W 20:20:40 39° NNW 20:24:40 10° NE visible
14 Jul 3.6 22:01:46 10° WNW 22:05:18 30° N 22:09:29 10° ENE visible
14 Jul 2.7 23:45:35 10° NW 23:49:46 53° NNE 23:54:59 10° ESE visible
15 Jul 2.5 19:46:36 10° W 19:49:59 44° NNW 19:54:01 10° NE visible
15 Jul 3.6 21:31:07 10° WNW 21:34:34 30° N 21:38:39 10° ENE visible
15 Jul 2.9 23:15:01 10° NW 23:19:07 47° NNE 23:24:09 10° E visible
16 Jul 2.2 19:15:54 10° WSW 19:19:19 51° NNW 19:23:21 10° NE visible
16 Jul 3.6 21:00:24 10° WNW 21:03:49 30° N 21:07:50 10° ENE visible
16 Jul 3.1 22:44:25 10° NW 22:48:24 42° NNE 22:53:18 10° E visible
17 Jul 1.8 18:45:12 10° WSW 18:48:38 62° NNW 18:52:40 10° NE visible
17 Jul 3.5 20:29:40 10° WNW 20:33:03 30° N 20:37:01 10° ENE visible
17 Jul 3.2 22:13:47 10° NW 22:17:40 38° NNE 22:22:24 10° E visible
17 Jul 1.8 23:57:20 10° NW 00:01:49 86° SW 00:07:27 10° SE visible
18 Jul 3.4 19:58:54 10° WNW 20:02:16 31° N 20:06:13 10° NE visible
18 Jul 3.4 21:43:08 10° NW 21:46:55 35° NNE 21:51:28 10° E visible
18 Jul 1.9 23:26:43 10° NW 23:31:09 82° NE 23:36:42 10° SE visible
19 Jul 3.3 19:28:06 10° W 19:31:28 33° NNW 19:35:25 10° NE visible
19 Jul 3.4 21:12:26 10° NW 21:16:07 33° NNE 21:20:32 10° ENE visible
19 Jul 2.1 22:56:04 10° NW 23:00:26 70° NE 23:05:54 10° ESE visible
20 Jul 3.1 18:57:17 10° W 19:00:39 36° NNW 19:04:37 10° NE visible
20 Jul 3.5 20:41:42 10° NW 20:45:18 31° N 20:49:34 10° ENE visible
20 Jul 2.3 22:25:25 10° NW 22:29:41 60° NNE 22:35:02 10° ESE visible
21 Jul 2.3 00:09:03 10° WNW 00:13:29 42° SW 00:18:53 10° SSE visible
21 Jul 3.5 20:10:56 10° WNW 20:14:27 30° N 20:18:37 10° ENE visible
21 Jul 2.6 21:54:44 10° NW 21:58:56 53° NNE 22:04:06 10° ESE visible
21 Jul 2.1 23:38:18 10° WNW 23:42:48 51° SW 23:48:20 10° SSE visible
